Regional Weather Roundup
Issued by NWS

Home | Current Version | Previous Version | Text Only | Print | Product List | Glossary Off
Versions: 1 2 3 4 5 6 7 8 9 10 11 12 13 14 15 16 17 18 19 20 21 22 23 24 25 26 27 28 29 30 31 32 33 34 35 36 37 38 39 40 41 42 43 44 45 46 47 48 49 50

862
ASUS45 KABQ 201901
RWRNM
NEW MEXICO REGIONAL WEATHER ROUNDUP
NATIONAL WEATHER SERVICE ALBUQUERQUE NM
1200 PM MST FRI JAN 20 2017

NOTE: "FAIR" MEANS FEW OR NO CLOUDS BELOW 12,000 FEET AGL WITH NO
       SIGNIFICANT WEATHER OR OBSTRUCTIONS TO VISION.

      THIS PRODUCT IS RELEASED AS TWO VERSIONS.  ONE VERSION NEAR
      THE TOP OF THE HOUR CONTAINING PRELIMINARY DATA FROM ALBUQUERQUE
      AND OTHER STATIONS.  A FINAL VERSION WITH ADDITIONAL DATA IS
      ISSUED ABOUT 10 MINUTES AFTER THE HOUR.

NMZ501-503-504-510>518-202000-
NORTHWEST PLATEAU/NORTHCENTRAL MOUNTAINS

CITY           SKY/WX    TMP DP  RH WIND       PRES   REMARKS
FARMINGTON     PTSUNNY   38  26  62 VRB6      29.67F WCI  33
LOS ALAMOS     FAIR      33  17  51 W29G39    29.62F WCI  20
SANTA FE       FAIR      39  20  46 W24G35    29.64F WCI  28
TAOS           CLOUDY    32  16  51 W16G22    29.61F WCI  21
ANGEL FIRE     LGT SNOW  25  20  82 SW25G32   29.57F VSB 3/4 WCI  10

$$
NMZ402-403-502-505>509-202000-
WESTCENTRAL MOUNTAINS/SOUTHWEST MOUNTAINS

CITY           SKY/WX    TMP DP  RH WIND       PRES   REMARKS
GALLUP         CLOUDY    33  27  78 SW12      29.71F WCI  24
GRANTS         CLOUDY    37  23  57 NW10G32   29.71F WCI  30
SILVER CITY    CLOUDY    44  31  61 W16       29.81F

$$
NMZ407-409-411-412-202000-
SOUTHERN DESERTS

CITY           SKY/WX    TMP DP  RH WIND       PRES   REMARKS
DEMING         PTSUNNY   52  34  50 W23G31    29.79F
LAS CRUCES     PTSUNNY   50  31  48 W15       29.82F
ALAMOGORDO     FAIR      52  32  46 S10G16    29.80F
T OR C         CLOUDY    50  29  44 S18       29.71F

$$
NMZ519>523-202000-
CENTRAL VALLEYS/CENTRAL HIGHLANDS

CITY           SKY/WX    TMP DP  RH WIND       PRES   REMARKS
ALBUQUERQUE    CLOUDY    41  28  60 SW14      29.73F
DOUBLE EAGLE   CLOUDY    39  25  56 W16       29.72F WCI  30
MORIARTY ARPT  FAIR      39  25  57 W22       29.69F WCI  29
CLINES CORNERS FAIR      33  23  66 W29G40    29.65F WCI  19
BELEN          CLOUDY    44  26  49 W17       29.73F
SOCORRO        CLOUDY    45  32  60 NE3       29.73F

$$
NMZ524>526-539-540-202000-
SOUTHCENTRAL MOUNTAINS

CITY           SKY/WX    TMP DP  RH WIND       PRES   REMARKS
RUIDOSO        NOT AVBL

$$
NMZ527>531-202000-
NORTHEAST HIGHLANDS/NORTHEAST PLAINS

CITY           SKY/WX    TMP DP  RH WIND       PRES   REMARKS
LAS VEGAS      FAIR      37  19  48 W26G35    29.59F WCI  25
RATON          FAIR      44  13  28 W18G31    29.44F
CLAYTON        FAIR      49  22  34 W26G37    29.44F

$$
NMZ532>537-202000-
EASTCENTRAL PLAINS

CITY           SKY/WX    TMP DP  RH WIND       PRES   REMARKS
TUCUMCARI      FAIR      54  26  34 W35G48    29.53F
CANNON AFB     FAIR      51  30  45 W31G44    29.61F
CLOVIS AIRPORT FAIR      54  30  40 W36G41    29.61F

$$
NMZ028-029-538-202000-
SOUTHEAST PLAINS

CITY           SKY/WX    TMP DP  RH WIND       PRES   REMARKS
ROSWELL        FAIR      61  23  23 W21G26    29.66F
ARTESIA        FAIR      57  30  35 W23G32    29.70F
CARLSBAD       FAIR      62  26  25 W30G37    29.69F
HOBBS          SUNNY     59  27  29 SW28G36   29.72F


$$




USA.gov is the U.S. government's official web portal to all federal, state and local government web resources and services.